カタログに戻る

THOR AGENA B DEB

運用中UNKNOWN
NORAD 2153·DEBRIS·🇺🇸 United States

打ち上げ Nov 29, 1965 から Vandenberg Space Force Base

Loading…

次のパス (今後24時間)

TLE

最新Source: Space-Track

元期: Sep 14, 2026, 05:22 UTC

1 02153U 65098J   26257.22423889  .00001147  00000-0  36169-3 0  9990
2 02153  79.7466 355.6309 1280463 224.2962 153.1996 12.39405651698063

AllMySatでTHOR AGENA B DEBをリアルタイム追跡

Download on the App Store